Location: Black Skies Observatory
(44.7549°N, 79.7179°W)
Time: 14:57:10
(UTC-05:00)

Envisat - Pass Details

Date: 04 November 2020
Orbit: 764 x 766 km, 98.1° (Epoch: 01 December)

Event Time Altitude Azimuth Distance (km) Brightness Sun altitude
Rises 18:18:37 0° 196° (SSW) 3,219 6.6 -13.8°
Reaches altitude 10° 18:21:15 10° 209° (SSW) 2,298 6.0 -14.3°
Maximum altitude 18:25:30 27° 266° (W) 1,451 5.3 -15.0°
Drops below altitude 10° 18:29:47 10° 323° (NW) 2,312 5.9 -15.8°
Sets 18:32:27 0° 336° (NNW) 3,243 6.5 -16.3°
